Location: Astronomy Club of Akron Observatory
(40.9700°N, 81.5606°W)
Time: 02:00:28
(UTC-04:00)

N. Korean satellite - Pass Details

Date: 22 February 2019
Orbit: 455 x 510 km, 97.2° (Epoch: 18 March)

Event Time Altitude Azimuth Distance (km) Brightness Sun altitude
Rises 06:36:28 0° 12° (NNE) 2,497 10.2 -7.3°
Reaches altitude 10° 06:38:31 10° 13° (NNE) 1,612 9.3 -6.9°
Maximum altitude 06:41:58 83° 100° (E) 466 6.6 -6.3°
Drops below altitude 10° 06:45:23 10° 190° (S) 1,589 9.2 -5.6°
Sets 06:47:24 0° 191° (SSW) 2,457 10.1 -5.2°
